[[{"header":{"parameterUnit":"m.s-1","parameterCategory":1,"la1":30.2991,"la2":30.254,"lo1":-89.0895,"lo2":-89.0444,"dy":0.0017,"dx":0.0017,"nx":28,"ny":28,"refTime":"2024-06-08T21:00:00:Z","depth":0,"parameterNumber":2,"parameterNumberName":"U-component_of_WINDS"},"data":[0,0,0,0,0,0,0,0,0,0,0,0,0,0,0,0,0,0,0,0,0,0,0,0,0,0,0,0,0,0,0,0,0,0,0,0,0,0,0,0,0,0,0,0,0,0,0,0,0,0,0,0,0,0,0,0,0,0,1.7929,1.793,0,1.7993,1.7994,1.7994,1.7976,1.7974,1.7973,1.7972,1.8038,1.8041,1.8044,0,0,0,0,0,0,0,0,0,0,0,0,0,1.779,1.7793,1.7929,1.793,1.7931,1.7993,1.7994,1.7995,1.7976,1.7974,1.7973,1.7971,1.8037,1.804,1.8044,0,0,0,0,0,0,0,0,0,0,0,0,0,1.7852,1.7794,1.7929,1.7929,1.7929,1.7993,1.7994,1.7995,1.7976,1.7974,1.7972,1.797,1.8036,1.804,1.8044,1.8112,0,0,1.8058,1.806,0,0,0,0,0,0,0,0,1.7848,1.7857,1.7928,1.7929,1.793,1.7974,1.7969,1.8034,1.7977,1.7958,1.7972,1.7969,1.8018,1.8024,1.804,1.8115,1.8118,1.8059,1.8061,1.8063,1.8064,0,0,0,0,0,0,0,1.7844,1.7854,1.7954,1.7929,1.793,1.7925,1.7932,1.7981,1.7999,1.796,1.7959,1.7966,1.8018,1.8036,1.8042,1.8119,1.8058,1.8062,1.8065,1.8067,1.8249,1.8251,0,0,0,0,0,0,1.7839,1.7851,1.7952,1.7956,1.7883,1.7929,1.7937,1.7962,1.7998,1.8002,1.7968,1.7965,1.8029,1.8037,1.8044,1.8124,1.8063,1.8067,1.807,1.8247,1.825,1.8252,0,0,0,0,0,0,1.7836,1.7849,1.795,1.7903,1.7916,1.7934,1.7962,1.7964,1.7982,1.8004,1.8007,1.7983,1.8028,1.8038,1.8095,1.8126,1.8069,1.8073,1.8245,1.8248,1.8251,1.8284,0,0,0,0,0,0,1.7832,1.7848,1.7874,1.7904,1.7918,1.7999,1.7964,1.7967,1.799,1.7987,1.8019,1.8023,1.8027,1.8088,1.8099,1.8131,1.8077,1.8242,1.8246,1.825,1.828,1.8288,1.8295,0,0,0,0,0,1.7828,1.7881,1.7875,1.7888,1.7951,1.8001,1.8009,1.8014,1.7992,1.8018,1.8032,1.8022,1.8121,1.8094,1.8106,1.814,1.824,1.8245,1.825,1.8277,1.8287,1.8295,0,0,0,0,0,0,1.7855,1.7885,1.7879,1.7944,1.797,1.7998,1.8031,1.8024,1.8057,1.8053,1.8057,1.8064,1.8122,1.8137,1.8106,1.8206,1.8177,1.8185,1.8194,1.8203,1.821,1.8205,1.8081,0,0,0,0,0,1.7868,1.7907,1.7931,1.7986,1.7999,1.8013,1.8035,1.8036,1.8063,1.8074,1.8093,1.812,1.8156,1.8181,1.8216,1.8283,1.8288,1.8312,1.8319,1.8325,1.8331,1.8365,1.8375,1.8268,1.8268,1.8268,0,0,1.7897,1.7918,1.7942,1.7992,1.8012,1.8051,1.8023,1.8065,1.8094,1.8081,1.8135,1.8149,1.8179,1.8241,1.8269,1.8255,1.8362,1.8331,1.8335,1.8338,1.8371,1.8381,1.839,1.8271,1.8271,1.827,0,0,1.7968,1.7989,1.8036,1.8056,1.8087,1.8096,1.8107,1.8136,1.8144,1.8199,1.8189,1.8223,1.8287,1.8308,1.8328,1.8405,1.8396,1.8417,1.8454,1.8487,1.8495,1.8503,1.8529,1.8538,1.8423,1.8423,1.8423,0,1.8,1.8058,1.8061,1.8104,1.8125,1.8115,1.8161,1.8182,1.8223,1.8237,1.8221,1.83,1.832,1.8385,1.8404,1.842,1.8432,1.8413,1.8494,1.8501,1.8508,1.8533,1.8543,1.8425,1.8425,1.8425,1.8425,0,1.8094,1.8134,1.8168,1.8207,1.8232,1.8277,1.8287,1.8312,1.831,1.832,1.8375,1.8398,1.8437,1.8452,1.8452,1.8517,1.8507,1.8493,1.8464,1.8521,1.8544,1.8553,1.8428,1.8428,1.8427,1.8426,0,0,1.8184,1.8223,1.8235,1.8252,1.8284,1.8315,1.8359,1.8397,1.8417,1.8446,1.8482,1.8535,1.8522,1.8543,1.8545,1.8574,1.8631,1.8556,1.8557,1.8568,1.8702,1.8712,1.8723,1.8626,1.8628,1.8629,1.8699,0,1.8257,1.8333,1.8337,1.8406,1.8442,1.8432,1.847,1.8493,1.8504,1.8536,1.8547,1.8584,1.8564,1.8577,1.8605,1.8618,1.8658,1.8614,1.8658,1.866,1.8649,1.8735,1.8746,1.8811,1.8708,1.871,1.8711,0,1.8352,1.8382,1.8454,1.848,1.8495,1.8529,1.8562,1.8594,1.862,1.8625,1.8648,1.8645,1.8689,1.8659,1.8719,1.8688,1.8707,1.8716,1.8718,1.8722,1.8688,1.8739,1.8832,1.8841,1.8726,1.8725,1.8723,0,1.8408,1.8467,1.8517,1.8532,1.8563,1.8587,1.8601,1.8625,1.8647,1.8676,1.869,1.8725,1.8743,1.877,1.8775,1.8754,1.8835,1.8806,1.8839,1.8839,1.8856,1.8854,1.8951,1.887,1.887,1.887,1.887,0,1.8487,1.8532,1.8542,1.8573,1.8622,1.8625,1.8674,1.8686,1.8708,1.874,1.8734,1.8765,1.8771,1.8803,1.8808,1.8856,1.8865,1.887,1.887,1.8869,1.8868,1.888,1.8875,1.8873,1.8872,1.8871,1.8871,0,1.8558,1.8567,1.8621,1.8646,1.8653,1.8688,1.8709,1.8738,1.8747,1.8788,1.8798,1.8812,1.8849,1.8858,1.8903,1.8906,1.8961,1.8959,1.8952,1.8951,1.8983,1.898,1.909,1.9104,1.9016,1.9017,1.9017,0,1.8607,1.8641,1.8669,1.869,1.8705,1.8739,1.8761,1.8765,1.8788,1.8819,1.8844,1.888,1.8909,1.8969,1.8983,1.9017,1.9013,1.905,1.9018,1.9016,1.9012,1.9009,1.9011,1.9055,1.9056,1.9057,1.9058,0,1.8693,1.8696,1.8727,1.8759,1.8785,1.8811,1.8835,1.8853,1.8861,1.8886,1.8924,1.8946,1.899,1.9026,1.9059,1.9073,1.9066,1.9067,1.9076,1.9075,1.9069,1.9071,1.8967,1.9065,1.9064,1.9063,1.9063,1.9063,1.8754,1.8782,1.8806,1.884,1.8859,1.8882,1.8909,1.8921,1.8952,1.8988,1.8989,1.9029,1.9053,1.9097,1.9113,1.9144,1.9133,1.9147,1.915,1.9153,1.9155,1.9066,1.9151,1.9151,1.915,1.915,1.915,0,1.8838,1.8852,1.8884,1.8917,1.8944,1.8935,1.8961,1.8984,1.9019,1.9042,1.907,1.9112,1.9146,1.9163,1.9196,1.9218,1.9215,1.9226,1.9224,1.9227,1.9164,1.9152,1.9227,1.9227,1.9227,1.9227,1.9227,1.9227,1.8884,1.8931,1.8936,1.8992,1.9006,1.9045,1.906,1.9081,1.9099,1.9146,1.9173,1.9184,1.9203,1.9238,1.9268,1.9272,1.9284,1.9296,1.9299,1.9239,1.9231,1.9224,1.9212,1.9299,1.9299,1.9358,1.9359,1.9359]},{"header":{"parameterUnit":"m.s-1","parameterCategory":1,"la1":30.2991,"la2":30.254,"lo1":-89.0895,"lo2":-89.0444,"dy":0.0017,"dx":0.0017,"nx":28,"ny":28,"refTime":"2024-06-08T21:00:00:Z","depth":0,"parameterNumber":3,"parameterNumberName":"V-component_of_WINDS"},"data":[0,0,0,0,0,0,0,0,0,0,0,0,0,0,0,0,0,0,0,0,0,0,0,0,0,0,0,0,0,0,0,0,0,0,0,0,0,0,0,0,0,0,0,0,0,0,0,0,0,0,0,0,0,0,0,0,0,0,4.1053,4.1054,0,4.115,4.1151,4.1152,4.1112,4.1109,4.1107,4.1105,4.1198,4.1203,4.1207,0,0,0,0,0,0,0,0,0,0,0,0,0,4.0823,4.0828,4.1052,4.1054,4.1055,4.115,4.1151,4.1153,4.1112,4.1109,4.1106,4.1104,4.1197,4.1202,4.1208,0,0,0,0,0,0,0,0,0,0,0,0,0,4.0922,4.0829,4.1052,4.1046,4.1047,4.115,4.1151,4.1153,4.1113,4.1109,4.1106,4.1102,4.1195,4.1202,4.1208,4.1321,0,0,4.123,4.1233,0,0,0,0,0,0,0,0,4.0916,4.093,4.1046,4.1047,4.1048,4.1115,4.1105,4.1209,4.1114,4.1087,4.1105,4.1101,4.1173,4.1182,4.1207,4.1325,4.1329,4.123,4.1235,4.1238,4.124,0,0,0,0,0,0,0,4.091,4.0926,4.1091,4.1048,4.1049,4.1036,4.1046,4.1124,4.1148,4.1089,4.1087,4.1099,4.1173,4.1201,4.1209,4.1331,4.123,4.1236,4.1241,4.1243,4.1543,4.1547,0,0,0,0,0,0,4.0904,4.0921,4.1088,4.1094,4.0972,4.1043,4.1055,4.1097,4.1147,4.1152,4.1102,4.1097,4.119,4.1201,4.1212,4.1346,4.1238,4.1244,4.1248,4.1539,4.1544,4.1548,0,0,0,0,0,0,4.0899,4.0919,4.1084,4.1007,4.1027,4.1051,4.1099,4.1101,4.1129,4.1157,4.116,4.1127,4.1188,4.1202,4.1294,4.1349,4.1247,4.1254,4.1535,4.1541,4.1546,4.1615,0,0,0,0,0,0,4.0893,4.0918,4.0962,4.1008,4.1031,4.1167,4.1102,4.1105,4.1142,4.1136,4.1181,4.1185,4.1186,4.1284,4.1301,4.1356,4.1259,4.153,4.1538,4.1544,4.1608,4.1622,4.1635,0,0,0,0,0,4.0885,4.0977,4.0965,4.0985,4.1088,4.117,4.1183,4.1184,4.1146,4.119,4.1208,4.1184,4.134,4.1294,4.1313,4.1371,4.1527,4.1536,4.1544,4.1602,4.1619,4.1634,0,0,0,0,0,0,4.0935,4.0983,4.097,4.108,4.1122,4.1163,4.1219,4.1203,4.1254,4.1247,4.1244,4.1255,4.1349,4.1369,4.1317,4.1481,4.1427,4.144,4.1465,4.1482,4.1495,4.1488,4.1265,0,0,0,0,0,4.0959,4.1024,4.1062,4.1155,4.1177,4.1194,4.123,4.1228,4.1269,4.1286,4.1311,4.135,4.1408,4.1446,4.1501,4.161,4.1618,4.1659,4.1673,4.1684,4.1694,4.1752,4.177,4.1576,4.1576,4.1576,0,0,4.1009,4.1044,4.1084,4.1166,4.1198,4.1263,4.1209,4.128,4.1327,4.1296,4.1385,4.1404,4.1447,4.1548,4.1594,4.1568,4.175,4.1695,4.1703,4.1708,4.1762,4.1781,4.1797,4.1582,4.1581,4.158,0,0,4.1134,4.1167,4.1248,4.1282,4.1331,4.1342,4.1361,4.1405,4.1417,4.1507,4.1484,4.1539,4.1639,4.167,4.17,4.1835,4.1814,4.1853,4.1922,4.1978,4.1993,4.2007,4.2054,4.2071,4.1863,4.1864,4.1864,0,4.1189,4.1289,4.1291,4.1365,4.14,4.1377,4.1457,4.1488,4.1552,4.1576,4.1546,4.1671,4.1698,4.1805,4.1838,4.1863,4.1883,4.1847,4.1992,4.2005,4.2018,4.2062,4.208,4.1868,4.1867,4.1867,4.1867,0,4.1354,4.1423,4.1482,4.1546,4.1588,4.1665,4.1676,4.1718,4.1712,4.1725,4.1815,4.1847,4.1908,4.1933,4.1927,4.2039,4.2021,4.1992,4.1937,4.2041,4.2082,4.2099,4.1874,4.1873,4.1871,4.187,0,0,4.1513,4.1578,4.1599,4.1628,4.168,4.1732,4.1806,4.1867,4.1902,4.1947,4.2007,4.2092,4.2065,4.2098,4.2095,4.2145,4.2248,4.2109,4.211,4.2133,4.2371,4.2392,4.2412,4.2234,4.2238,4.224,4.2367,0,4.164,4.1773,4.1777,4.1897,4.196,4.1938,4.2002,4.2039,4.2054,4.2106,4.2121,4.2181,4.2141,4.2161,4.2209,4.2225,4.2296,4.2216,4.2288,4.2291,4.2278,4.2434,4.2457,4.2575,4.2383,4.2386,4.2388,0,4.1807,4.1859,4.1986,4.2029,4.2055,4.2113,4.2168,4.222,4.2261,4.2268,4.2305,4.2294,4.2367,4.2311,4.241,4.2356,4.2385,4.2398,4.2402,4.2408,4.2345,4.2443,4.2613,4.263,4.2414,4.2412,4.241,0,4.1909,4.201,4.2099,4.2124,4.2176,4.2217,4.224,4.2278,4.2314,4.2362,4.2384,4.2439,4.2469,4.251,4.2514,4.2473,4.2613,4.2557,4.2618,4.2618,4.2648,4.2646,4.2824,4.2669,4.2668,4.2668,4.2668,0,4.205,4.2129,4.2145,4.22,4.2286,4.2288,4.2373,4.2392,4.2426,4.2482,4.2465,4.2517,4.252,4.2572,4.2575,4.2656,4.2669,4.2675,4.2674,4.2676,4.2675,4.2694,4.2686,4.2673,4.2672,4.2671,4.267,0,4.2178,4.2193,4.2288,4.233,4.2342,4.2404,4.2438,4.2489,4.2501,4.2572,4.2588,4.2607,4.2668,4.2676,4.2747,4.2749,4.2845,4.2837,4.2832,4.283,4.289,4.2884,4.3086,4.3112,4.2941,4.2943,4.2944,0,4.2267,4.2327,4.2376,4.2413,4.2439,4.2499,4.2536,4.254,4.2579,4.263,4.2674,4.2734,4.2782,4.288,4.2898,4.2952,4.2944,4.3011,4.2951,4.2951,4.2943,4.2939,4.2944,4.3022,4.3024,4.3025,4.3026,0,4.2423,4.2427,4.2483,4.2541,4.2586,4.2631,4.2673,4.2704,4.2713,4.2757,4.282,4.2858,4.2931,4.299,4.3043,4.3063,4.3046,4.3045,4.3062,4.3063,4.3058,4.306,4.2862,4.304,4.3039,4.3038,4.3037,4.3036,4.2533,4.2585,4.2628,4.2689,4.2722,4.2762,4.2811,4.283,4.2884,4.2946,4.2944,4.3013,4.305,4.312,4.3144,4.3197,4.3174,4.3199,4.3205,4.321,4.3216,4.3051,4.3206,4.3206,4.3206,4.3205,4.3205,0,4.2687,4.2713,4.277,4.2831,4.2879,4.2861,4.2907,4.2947,4.3009,4.3047,4.3095,4.3167,4.3223,4.3246,4.3301,4.3339,4.3332,4.3353,4.3349,4.3354,4.3233,4.3213,4.3357,4.3357,4.3357,4.3357,4.3357,4.3357,4.2773,4.2859,4.2868,4.297,4.2994,4.3064,4.3092,4.3127,4.3157,4.3239,4.3287,4.3302,4.3333,4.339,4.3441,4.3446,4.3466,4.349,4.3492,4.3378,4.3363,4.3348,4.3329,4.3495,4.3495,4.3608,4.3609,4.3609]}]]